Погода в Оймяконе

Погода в Оймяконе : погода сейчас, прогноз погоды и архив. Всё, что Вы хотите узнать о погоде в Оймяконе!

Хотите узнать прогноз погоды в Оймяконе? Тогда Вам сюда: Погода в Оймяконе

Поиск расширенной информации на нашем сайте:

Другие новости

Новости СМИ2

Главная страница сайта

Новости сайта

03.07.2017

Напоминаем, что на нашем специализированном сайте Метеоцентр.Азия вы можете получить высокодетализированные автоматические прогнозы погоды по пунктам России, СНГ и мира в авиационном формате (включающие направление и скорость ветра, видимость, явления погоды, количество и форму облачности, нижнюю и верхнюю границу облачности).


Погода в Оймяконе - сегодня

Время (UTC), дата Ветер
(°,м/с) 
Видим.   Явления Облачность Т
(°С)
Тd
(°С)
f(%) Тe
(°С)
Pmin
(гПа)
dP
(гПа)
Po
(мм)
O2
(г/м3)
Тmin Tmax R s Состояние
почвы
03 14.06.18 160 (Ю) 20000 м    6/6 1000 м кучево-дожд. 
[Cb cap]
+15.5 -1.2 32 +16  1012.3  -1.6  696  265           
06 14.06.18 170 (Ю) 20000 м  осадки на расстоянии  10/6 1000 м кучево-дожд., верхняя 
[Cb cap|Cs]
+15.9 -2.2 29 +16  1010.2  -1.8  695  265           
09 14.06.18 190 (Ю) 5{10}  20000 м    10/5 1000 м кучево-дожд., верхняя 
[Cb cap|Cs]
+14.1 -2.2 32 +14  1010.7  -0.1  695  266    +16.7       
12 14.06.18 170 (Ю) 20000 м  осадки на расстоянии  6/4 1000 м кучево-дожд., средняя, верхняя 
[Cb cap|Ac lent|Ci fib]
+9.2 +2.1 61 +8  1012.4  0.3  695  270           
15 14.06.18 250 (З) 20000 м  осадки на расстоянии  10/3 1000 м кучево-дожд., средняя, верхняя 
[Cb cap|Ac lent|Cs]
+6 +2.1 76 +6  1013.6  0.2  695  274           
18 14.06.18 220 (ЮЗ) 20000 м  осадки на расстоянии  9/9 1500 м кучево-дожд. 
[Cb cap]
+6.5 +2.9 78 +6  1013  -0.4  695  273           
00 15.06.18 070 (В) 10 км  слаб. ливневой дождь  10/10 1440 м кучево-дожд. 
[Cb cap]
+6.9 +6.5 97 +7  1011.6  -1  694  271           
03 15.06.18 050 (СВ) 20000 м  {ливн. осадки}  5/5 600 м кучево-дожд. 
[Cb cap]
+11.2 +6.5 73 +11  1009.2  -0.8  693  267           
12 15.06.18 270 (З) 20000 м  {гроза, ливн. осадки}  9/6 1000 м кучево-дожд., верхняя 
[Cb cap|Ci fib]
+9.1 +5.1 76 +9  1008.8  -0.4  692  269           
15 15.06.18 260 (З) 20000 м    10/6 1000 м кучево-дожд., верхняя 
[Cb cap|Ci fib]
+3.8 +3.1 95 +5  1010.5  -0.1  692  274           
18 15.06.18 240 (ЮЗ) 20000 м  слаб. ливневой дождь  10/8 1000 м кучево-дожд., средняя 
[Cb cap|Ac As]
+5.9 +4.7 92 +7  1008.7  -0.9  692  272           
21 15.06.18 180 (Ю) 20000 м  слаб. ливневой дождь  10/8 1000 м кучево-дожд., средняя 
[Cb cap|As op]
+6.7 +6.5 99 +7  1007.8  -0.6  691  271  +2.7      влажная 
03 16.06.18 080 (В) 20000 м  {ливн. осадки}  8/5 600 м кучево-дожд., средняя, верхняя 
[Cb cap|Ac trans|Ci fib]
+11.3 +8.2 81 +12  1004.5  -1  690  265           
06 16.06.18 070 (В) 20000 м  слаб. ливневой дождь  8/6 1000 м кучево-дожд., средняя, верхняя 
[Cb cap|Ac trans|Ci fib]
+11.6 +8.5 81 +14  1003.8  -0.4  690  265           
12 16.06.18 050 (СВ) 20000 м  осадки на расстоянии{ливн. осадки}  9/4 1000 м кучево-дожд., верхняя 
[Cb cap|Ci fib]
+10.5 +8.2 86 +12  1004.3  0.7  690  266           
15 16.06.18 тихо ()   20000 м  местами туман поземный  8/8 1000 м кучево-дожд. 
[Cb cap]
+4.6 +4.1 97 +5  1006.8  0.4  690  273           
18 16.06.18 080 (В) 20000 м  местами туман поземный  9/9 1000 м кучево-дожд. 
[Cb cap]
+6.3 +5.9 97 +7  1006.3  0.2  690  271           
21 16.06.18 090 (В) 20000 м  слаб. ливневой дождь  9/9 1000 м кучево-дожд. 
[Cb cap]
+9.3 +7.1 86 +10  1006.3  0.8  691  268  +3.7    0.1    влажная 
03 17.06.18 190 (Ю) 20000 м    8/6 1000 м кучево-дожд., верхняя 
[Cb calv|Ci fib]
+16.6 +4.3 44 +17  1003.7  -0.5  690  261           
06 17.06.18 250 (З) 20000 м  гроза, ливневой дождь  9/9 600 м кучево-дожд., верхняя 
[Cb cap|Ci ing]
+14.6 +5.3 54 +14  1003.9  -0.4  690  263           
12 17.06.18 070 (В) 20000 м  {гроза, ливн. осадки}  8/6 1000 м кучево-дожд., верхняя 
[Cb cap|Ci fib]
+10.6 +9 90 +13  1006.7  0.7  691  266           
15 17.06.18 тихо ()   0050 м  туман  8/4 1000 м кучево-дожд., верхняя 
[Cb cap|Ci fib]
+4.6 +3.9 95 +5  1008.9  0.1  691  273           
18 17.06.18 020 (С) 20000 м  местами туман поземный  9/4 1000 м кучево-дожд., верхняя 
[Cb cap|Ci fib]
+6.2 +6 99 +5  1009.3  0.8  692  271           
21 17.06.18 130 (ЮВ) 20000 м    4/3 1000 м верхняя 
[Sc|Ci fib]
+11 +5.1 67 +12  1008.2  0.5  692  267  +4.1        влажная 
00 18.06.18 100 (В) 20000 м    8/6 1000 м верхняя 
[Cu med, cong|Ci fib]
+15.4 +5.8 53 +16  1006.4  -0.4  692  263           
Время (UTC), дата Ветер
(°,м/с) 
Видим.   Явления Облачность Т
(°С)
Тd
(°С)
f(%) Тe
(°С)
Pmin
(гПа)
dP
(гПа)
Po
(мм)
O2
(г/м3)
Тmin Tmax R s Состояние
почвы

Для получения пояснительной информации подведите курсор к названию столбца.

ПОГОДА в Оймяконе - архив

Всё, что Вы хотите узнать о погоде в Оймяконе - удобно и подробно!

Выберите нужную дату (начиная с 1 января 2015* года) и нажмите кнопку "Найти".
Будут отображены архивные сводки погоды по пункту Оймякон, начиная с указанной даты.


Отображать данные в формате CSV (для использования в таблицах Excel)


Внимание! Наш архив погоды предназначен исключительно для личного некоммерческого использования в познавательных целях. Если Вам необходимы официальные справки о состоянии погоды (для производственных, юридических, коммерческих и т.п. целей), обращайтесь в органы Росгидромета.

*Примечание: данная дата относится к архиву по метеостанциям СССР (Россия, СНГ, Балтия).
Архив по метеостанциям Зарубежной Европы и Азии (кроме Китая) хранится 10 дней, по другим регионам земного шара (Китай, Африка, Америка, Австралия, Океания) - 1 день.

Оймякон - район местоположения метеостанции


Название, широта, долгота, высота метеостанции:
Оймякон 63.2°ш. 143.2°д. 741 м над ур. моря [Российская Федерация]

Дополнительная информация

В oтличие oт бoльшинства пoгoдных сайтoв мы публикуем пoдрoбную метеoинфoрмацию в детальнoм прoфессиoнальнoм фoрмате.

Характеристики температуры и влажнoсти вoздуха измеряются на высoте 2 м в тени вдали oт зданий и деревьев.
Скoрoсть ветра измеряется на высoте 10 м (на урoвне рoста челoвека скoрoсть ветра ниже в 1.5-2 раза). Если метеoстанция нахoдится в гoрoде или в лесу, тo скoрoсть ветра занижена на 2-4 м/с пo сравнению с oткрытым местoм. Скoрoсть ветра над акватoриями крупных рек и oзёр, а также на вершинах хoлмoв на 2-5 м/с выше, чем в oбычных услoвиях.
Атмoсфернoе давление в разных тoчках местнoсти мoжет значительнo oтличаться oт давления на метеoстанции, в зависимoсти oт услoвий рельефа (при пoдъёме на 10 м давление пoнижается примернo на 1 мм рт.ст.).